| time (UTC) | temp C | wind direction | speed KPH | gust KPH | rain 1hr cm | rain 24hr cm | rain mn cm | humidity % | barometer mb |
| 20260505224529 | 23 | 243 | 16.1 | 32.2 | 0.00 | 0.05 | 0.05 | 22 | 1011.7 |
| 20260505223033 | 23 | 195 | 14.5 | 30.6 | 0.00 | 0.05 | 0.05 | 24 | 1011.8 |
| 20260505221526 | 22 | 242 | 17.7 | 33.8 | 0.00 | 0.05 | 0.05 | 24 | 1012.1 |
| 20260505220022 | 22 | 273 | 19.3 | 33.8 | 0.00 | 0.05 | 0.05 | 21 | 1012.3 |
| 20260505214529 | 23 | 250 | 14.5 | 32.2 | 0.00 | 0.05 | 0.05 | 24 | 1012.4 |
| 20260505213019 | 22 | 212 | 14.5 | 35.4 | 0.00 | 0.05 | 0.05 | 25 | 1012.6 |
| 20260505211516 | 22 | 235 | 20.9 | 30.6 | 0.00 | 0.05 | 0.05 | 26 | 1012.9 |
| 20260505210012 | 22 | 239 | 16.1 | 30.6 | 0.00 | 0.05 | 0.05 | 29 | 1013.0 |
| 20260505204611 | 22 | 195 | 12.9 | 29.0 | 0.00 | 0.05 | 0.05 | 29 | 1013.2 |
| 20260505203008 | 22 | 191 | 16.1 | 25.7 | 0.00 | 0.05 | 0.05 | 32 | 1013.1 |
| 20260505201511 | 22 | 222 | 14.5 | 25.7 | 0.00 | 0.05 | 0.05 | 35 | 1013.3 |
| 20260505200002 | 21 | 233 | 9.7 | 29.0 | 0.00 | 0.05 | 0.05 | 39 | 1013.8 |
| 20260505194502 | 21 | 224 | 12.9 | 27.4 | 0.00 | 0.05 | 0.05 | 38 | 1013.9 |
| 20260505193101 | 21 | 194 | 11.3 | 27.4 | 0.00 | 0.05 | 0.05 | 39 | 1014.0 |
| 20260505191558 | 21 | 183 | 11.3 | 29.0 | 0.00 | 0.05 | 0.05 | 40 | 1014.1 |
| 20260505190057 | 20 | 200 | 9.7 | 20.9 | 0.00 | 0.05 | 0.05 | 50 | 1014.5 |
| 20260505184553 | 18 | 160 | 4.8 | 27.4 | 0.00 | 0.05 | 0.05 | 52 | 1014.6 |
| 20260505183102 | 18 | 160 | 9.7 | 20.9 | 0.00 | 0.05 | 0.05 | 54 | 1014.8 |
| 20260505181551 | 18 | 205 | 3.2 | 17.7 | 0.00 | 0.05 | 0.05 | 56 | 1015.0 |
| 20260505180051 | 18 | 180 | 3.2 | 14.5 | 0.00 | 0.05 | 0.05 | 57 | 1015.2 |
| 20260505174555 | 17 | 195 | 4.8 | 11.3 | 0.00 | 0.05 | 0.05 | 59 | 1015.2 |
| 20260505173041 | 16 | 164 | 1.6 | 6.4 | 0.00 | 0.05 | 0.05 | 60 | 1015.3 |
| 20260505171545 | 16 | 152 | 4.8 | 24.1 | 0.00 | 0.05 | 0.05 | 60 | 1015.4 |
| 20260505170037 | 16 | 156 | 4.8 | 14.5 | 0.00 | 0.05 | 0.05 | 61 | 1015.2 |
| 20260505164537 | 16 | 175 | 4.8 | 12.9 | 0.00 | 0.05 | 0.05 | 63 | 1015.0 |
| 20260505163036 | 16 | 186 | 4.8 | 12.9 | 0.00 | 0.05 | 0.05 | 62 | 1015.3 |
| 20260505161533 | 16 | 162 | 4.8 | 12.9 | 0.00 | 0.05 | 0.05 | 65 | 1015.1 |
| 20260505153027 | 13 | 181 | 3.2 | 8.0 | 0.00 | 0.05 | 0.05 | 68 | 1015.0 |
| 20260505151528 | 13 | 193 | 4.8 | 8.0 | 0.00 | 0.05 | 0.05 | 70 | 1014.8 |
| 20260505124523 | 11 | 145 | 0.0 | 4.8 | 0.00 | 0.00 | 0.00 | 83 | 1013.6 |
| 20260505123027 | 11 | 133 | 1.6 | 4.8 | 0.00 | 0.00 | 0.00 | 83 | 1013.5 |
| 20260505121521 | 11 | 141 | 0.0 | 1.6 | 0.00 | 0.00 | 0.00 | 83 | 1013.8 |
| 20260505120029 | 11 | 126 | 0.0 | 0.0 | 0.00 | 0.00 | 0.00 | 82 | 1014.1 |
| 20260505114514 | 11 | 111 | 0.0 | 1.6 | 0.00 | 0.00 | 0.00 | 81 | 1014.1 |
| 20260505113011 | 12 | 63 | 0.0 | 4.8 | 0.00 | 0.00 | 0.00 | 81 | 1014.4 |
| 20260505111514 | 12 | 122 | 0.0 | 4.8 | 0.00 | 0.00 | 0.00 | 79 | 1014.6 |
| 20260505101556 | 13 | 301 | 6.4 | 9.7 | 0.00 | 0.00 | 0.00 | 72 | 1015.5 |
| 20260505100054 | 13 | 313 | 8.0 | 14.5 | 0.00 | 0.00 | 0.00 | 71 | 1015.5 |
| 20260505094551 | 13 | 323 | 3.2 | 9.7 | 0.00 | 0.00 | 0.00 | 70 | 1015.9 |
| 20260505093058 | 13 | 297 | 3.2 | 8.0 | 0.00 | 0.00 | 0.00 | 70 | 1015.8 |
| 20260505091600 | 13 | 319 | 0.0 | 4.8 | 0.00 | 0.00 | 0.00 | 69 | 1016.2 |
| 20260505090045 | 14 | 267 | 0.0 | 4.8 | 0.00 | 0.00 | 0.00 | 67 | 1016.3 |
| 20260505084543 | 14 | 337 | 0.0 | 4.8 | 0.00 | 0.00 | 0.00 | 63 | 1016.6 |
| 20260505083041 | 15 | 285 | 0.0 | 4.8 | 0.00 | 0.00 | 0.00 | 60 | 1016.4 |
| 20260505081539 | 15 | 303 | 3.2 | 4.8 | 0.00 | 0.00 | 0.00 | 58 | 1016.4 |
| 20260505080044 | 14 | 298 | 0.0 | 0.0 | 0.00 | 0.00 | 0.00 | 57 | 1016.8 |
| 20260505074536 | 15 | 292 | 1.6 | 6.4 | 0.00 | 0.00 | 0.00 | 57 | 1016.7 |
| 20260505073039 | 15 | 319 | 1.6 | 6.4 | 0.00 | 0.00 | 0.00 | 57 | 1016.6 |
| 20260505071536 | 15 | 345 | 1.6 | 4.8 | 0.00 | 0.00 | 0.00 | 54 | 1016.8 |
| 20260505070029 | 14 | 120 | 0.0 | 3.2 | 0.00 | 0.00 | 0.00 | 55 | 1016.7 |
| 20260505064527 | 13 | 129 | 0.0 | 3.2 | 0.00 | 0.00 | 0.00 | 58 | 1016.9 |
| 20260505063027 | 13 | 128 | 0.0 | 0.0 | 0.00 | 0.00 | 0.00 | 57 | 1016.9 |
| 20260505061526 | 13 | 128 | 0.0 | 1.6 | 0.00 | 0.00 | 0.00 | 58 | 1016.7 |
| 20260505060040 | 13 | 128 | 0.0 | 3.2 | 0.00 | 0.00 | 0.00 | 58 | 1017.0 |
| 20260505054527 | 13 | 125 | 0.0 | 1.6 | 0.00 | 0.00 | 0.00 | 59 | 1017.1 |
| 20260505053026 | 13 | 55 | 0.0 | 0.0 | 0.00 | 0.00 | 0.00 | 56 | 1017.3 |
| 20260505051527 | 13 | 55 | 0.0 | 0.0 | 0.00 | 0.00 | 0.00 | 57 | 1017.1 |
| 20260505041525 | 15 | 352 | 1.6 | 9.7 | 0.00 | 0.00 | 0.00 | 54 | 1017.3 |
| 20260505040022 | 15 | 12 | 4.8 | 9.7 | 0.00 | 0.00 | 0.00 | 50 | 1017.4 |
| 20260505034521 | 15 | 323 | 4.8 | 11.3 | 0.00 | 0.00 | 0.00 | 48 | 1016.9 |
| 20260505033021 | 15 | 307 | 0.0 | 4.8 | 0.00 | 0.00 | 0.00 | 47 | 1016.6 |
| 20260505031520 | 15 | 1 | 0.0 | 8.0 | 0.00 | 0.00 | 0.00 | 47 | 1016.3 |
| 20260505030019 | 16 | 4 | 3.2 | 14.5 | 0.00 | 0.00 | 0.00 | 46 | 1015.8 |
| 20260505024519 | 16 | 7 | 6.4 | 17.7 | 0.00 | 0.00 | 0.00 | 44 | 1015.6 |
| 20260505023023 | 17 | 346 | 9.7 | 17.7 | 0.00 | 0.00 | 0.00 | 43 | 1015.3 |
| 20260505021521 | 17 | 345 | 9.7 | 24.1 | 0.00 | 0.00 | 0.00 | 41 | 1015.6 |
| 20260505020016 | 18 | 333 | 9.7 | 20.9 | 0.00 | 0.00 | 0.00 | 35 | 1015.5 |
| 20260505014516 | 20 | 307 | 9.7 | 17.7 | 0.00 | 0.00 | 0.00 | 30 | 1015.0 |
| 20260505013016 | 21 | 295 | 8.0 | 16.1 | 0.00 | 0.00 | 0.00 | 28 | 1014.9 |
| 20260505011515 | 21 | 314 | 8.0 | 14.5 | 0.00 | 0.00 | 0.00 | 29 | 1015.0 |
| 20260505010014 | 21 | 310 | 4.8 | 17.7 | 0.00 | 0.00 | 0.00 | 29 | 1015.1 |
| 20260505004520 | 21 | 293 | 9.7 | 20.9 | 0.00 | 0.00 | 0.00 | 28 | 1015.2 |
| 20260505003013 | 22 | 315 | 3.2 | 12.9 | 0.00 | 0.00 | 0.00 | 26 | 1015.2 |
| 20260505001513 | 22 | 319 | 11.3 | 32.2 | 0.00 | 0.00 | 0.00 | 27 | 1015.3 |
| 20260505000021 | 22 | 295 | 11.3 | 20.9 | 0.00 | 0.00 | 0.00 | 23 | 1015.0 |
| 20260504234511 | 23 | 302 | 8.0 | 22.5 | 0.00 | 0.00 | 0.00 | 21 | 1015.0 |
| 20260504233012 | 23 | 305 | 12.9 | 24.1 | 0.00 | 0.00 | 0.00 | 20 | 1014.9 |
| 20260504231511 | 23 | 260 | 3.2 | 22.5 | 0.00 | 0.00 | 0.00 | 20 | 1014.9 |
| 20260504230009 | 24 | 266 | 9.7 | 22.5 | 0.00 | 0.00 | 0.00 | 19 | 1014.7 |